Location: Barrio Pajares
(40.5500°N, 4.1667°W)
Time: 17:01:38
(UTC+00:00)

DELTA 2 DEB (DPAF) - Pass Details

Date: 18 April 2024
Orbit: 597 x 601 km, 98.4° (Epoch: 23 May)

Event Time Altitude Azimuth Distance (km) Brightness Sun altitude
Rises 19:45:14 0° 17° (NNE) 2,850 7.6 -9.0°
Reaches altitude 10° 19:47:26 10° 21° (NNE) 1,943 6.7 -9.4°
Maximum altitude 19:51:36 59° 101° (E) 693 4.0 -10.1°
Drops below altitude 10° 19:55:44 10° 182° (S) 1,931 6.4 -10.8°
Sets 19:57:55 0° 186° (S) 2,830 7.2 -11.2°
